Time,TemperatureF,DewpointF,PressureIn,WindDirection,WindDirectionDegrees,WindSpeedMPH,WindSpeedGustMPH,Humidity,HourlyPrecipIn,Conditions,Clouds,dailyrainin,SolarRadiationWatts/m^2,SoftwareType,DateUTC
2013-02-23 00:00:00,37.9,36.6,29.96,ESE,105,0.0,0.0,95,0.00,,,0.00,0,WeatherTracker,2013-02-23 05:00:00,
2013-02-23 00:05:00,37.8,36.5,29.96,ESE,105,0.0,0.0,95,0.00,,,0.00,0,WeatherTracker,2013-02-23 05:05:00,
2013-02-23 00:10:00,37.8,36.5,29.95,ESE,105,0.0,0.0,95,0.00,,,0.00,0,WeatherTracker,2013-02-23 05:10:00,
2013-02-23 00:15:00,37.8,36.5,29.95,ESE,105,0.0,0.0,95,0.00,,,0.00,0,WeatherTracker,2013-02-23 05:15:00,
2013-02-23 00:20:00,37.8,36.5,29.95,ESE,105,0.0,0.0,95,0.00,,,0.00,0,WeatherTracker,2013-02-23 05:20:00,
2013-02-23 00:25:00,37.9,36.6,29.95,ESE,105,0.0,0.0,95,0.01,,,0.01,0,WeatherTracker,2013-02-23 05:25:00,
2013-02-23 00:30:00,38.1,36.8,29.94,ESE,105,0.0,0.0,95,0.01,,,0.01,0,WeatherTracker,2013-02-23 05:30:00,
2013-02-23 00:35:00,38.4,37.1,29.94,ESE,105,0.0,0.0,95,0.01,,,0.01,0,WeatherTracker,2013-02-23 05:35:00,
2013-02-23 00:40:00,38.6,37.3,29.94,ESE,105,0.0,0.0,95,0.01,,,0.01,0,WeatherTracker,2013-02-23 05:40:00,
2013-02-23 00:45:00,38.8,37.5,29.93,ESE,105,0.0,0.0,95,0.02,,,0.02,0,WeatherTracker,2013-02-23 05:45:00,
2013-02-23 00:50:00,39.0,37.7,29.93,ESE,105,0.0,0.0,95,0.02,,,0.02,0,WeatherTracker,2013-02-23 05:50:00,
2013-02-23 00:56:00,39.1,37.8,29.93,ESE,105,0.0,0.0,95,0.03,,,0.03,0,WeatherTracker,2013-02-23 05:56:00,
2013-02-23 01:01:00,39.1,37.8,29.93,ESE,105,0.0,0.0,95,0.04,,,0.04,0,WeatherTracker,2013-02-23 06:01:00,
2013-02-23 01:06:00,39.1,37.8,29.93,ESE,105,0.0,0.0,95,0.05,,,0.05,0,WeatherTracker,2013-02-23 06:06:00,
2013-02-23 01:11:00,38.7,37.4,29.91,ESE,105,0.0,0.0,95,0.05,,,0.05,0,WeatherTracker,2013-02-23 06:11:00,
2013-02-23 01:16:00,38.3,37.0,29.91,ESE,105,0.0,0.0,95,0.05,,,0.05,0,WeatherTracker,2013-02-23 06:16:00,
2013-02-23 01:21:00,38.0,36.7,29.91,ESE,105,0.0,0.0,95,0.05,,,0.05,0,WeatherTracker,2013-02-23 06:21:00,
2013-02-23 01:26:00,37.8,36.5,29.90,ESE,105,0.0,0.0,95,0.04,,,0.05,0,WeatherTracker,2013-02-23 06:26:00,
2013-02-23 01:31:00,37.7,36.4,29.90,ESE,105,0.0,0.0,95,0.04,,,0.05,0,WeatherTracker,2013-02-23 06:31:00,
2013-02-23 01:36:00,37.7,36.4,29.90,ESE,105,0.0,0.0,95,0.04,,,0.05,0,WeatherTracker,2013-02-23 06:36:00,
2013-02-23 01:41:00,37.7,36.4,29.90,ESE,105,0.0,0.0,95,0.04,,,0.05,0,WeatherTracker,2013-02-23 06:41:00,
2013-02-23 01:46:00,37.8,36.5,29.90,ESE,105,0.0,0.0,95,0.03,,,0.05,0,WeatherTracker,2013-02-23 06:46:00,
2013-02-23 01:51:00,37.9,36.6,29.89,ESE,105,0.0,0.0,95,0.03,,,0.05,0,WeatherTracker,2013-02-23 06:51:00,
2013-02-23 01:56:00,37.9,36.6,29.90,ESE,105,0.0,0.0,95,0.02,,,0.05,0,WeatherTracker,2013-02-23 06:56:00,
2013-02-23 02:01:00,38.0,36.7,29.90,ESE,105,0.0,0.0,95,0.01,,,0.05,0,WeatherTracker,2013-02-23 07:01:00,
2013-02-23 02:06:00,38.0,36.7,29.89,ESE,105,0.0,0.0,95,0.00,,,0.05,0,WeatherTracker,2013-02-23 07:06:00,
2013-02-23 02:11:00,38.0,36.7,29.89,ESE,105,0.0,0.0,95,0.00,,,0.05,0,WeatherTracker,2013-02-23 07:11:00,
2013-02-23 02:16:00,38.0,36.7,29.90,ESE,105,0.0,0.0,95,0.00,,,0.05,0,WeatherTracker,2013-02-23 07:16:00,
2013-02-23 02:21:00,37.9,36.6,29.91,ESE,105,0.0,0.0,95,0.00,,,0.05,0,WeatherTracker,2013-02-23 07:21:00,
2013-02-23 02:26:00,37.8,36.5,29.91,ESE,105,0.0,0.0,95,0.00,,,0.05,0,WeatherTracker,2013-02-23 07:26:00,
2013-02-23 02:31:00,37.7,36.4,29.91,ESE,105,0.0,0.0,95,0.01,,,0.06,0,WeatherTracker,2013-02-23 07:31:00,
2013-02-23 02:36:00,37.6,36.3,29.91,ESE,105,0.0,0.0,95,0.01,,,0.06,0,WeatherTracker,2013-02-23 07:36:00,
2013-02-23 02:41:00,37.5,35.9,29.91,ESE,105,0.0,0.0,94,0.01,,,0.06,0,WeatherTracker,2013-02-23 07:41:00,
2013-02-23 02:46:00,37.5,35.9,29.91,ESE,105,0.0,0.0,94,0.02,,,0.07,0,WeatherTracker,2013-02-23 07:46:00,
2013-02-23 02:51:00,37.5,36.2,29.91,ESE,105,0.0,0.0,95,0.02,,,0.07,0,WeatherTracker,2013-02-23 07:51:00,
2013-02-23 02:56:00,37.5,35.9,29.91,ESE,105,0.0,0.0,94,0.02,,,0.07,0,WeatherTracker,2013-02-23 07:56:00,
2013-02-23 03:01:00,37.5,35.9,29.91,ESE,105,0.0,0.0,94,0.03,,,0.08,0,WeatherTracker,2013-02-23 08:01:00,
2013-02-23 03:07:00,37.5,35.9,29.91,ESE,105,0.0,0.0,94,0.04,,,0.09,0,WeatherTracker,2013-02-23 08:07:00,
2013-02-23 03:14:00,37.4,35.8,29.90,ESE,105,0.0,0.0,94,0.04,,,0.09,0,WeatherTracker,2013-02-23 08:14:00,
2013-02-23 03:19:00,37.3,35.7,29.89,ESE,105,0.0,0.0,94,0.05,,,0.10,0,WeatherTracker,2013-02-23 08:19:00,
2013-02-23 03:24:00,37.4,35.8,29.88,ESE,105,0.0,0.0,94,0.05,,,0.10,0,WeatherTracker,2013-02-23 08:24:00,
2013-02-23 03:29:00,37.4,35.8,29.87,ESE,105,0.0,0.0,94,0.05,,,0.10,0,WeatherTracker,2013-02-23 08:29:00,
2013-02-23 03:34:00,37.3,35.7,29.86,ESE,105,0.0,0.0,94,0.04,,,0.10,0,WeatherTracker,2013-02-23 08:34:00,
2013-02-23 03:39:00,37.4,35.8,29.86,ESE,105,0.0,0.0,94,0.04,,,0.10,0,WeatherTracker,2013-02-23 08:39:00,
2013-02-23 03:44:00,37.6,36.0,29.86,ESE,105,0.0,0.0,94,0.03,,,0.10,0,WeatherTracker,2013-02-23 08:44:00,
2013-02-23 03:49:00,37.8,36.2,29.86,ESE,105,0.0,0.0,94,0.03,,,0.10,0,WeatherTracker,2013-02-23 08:49:00,
2013-02-23 03:54:00,37.9,36.3,29.86,ESE,105,0.0,0.0,94,0.03,,,0.10,0,WeatherTracker,2013-02-23 08:54:00,
2013-02-23 03:59:00,38.0,36.4,29.87,ESE,105,0.0,0.0,94,0.02,,,0.10,0,WeatherTracker,2013-02-23 08:59:00,
2013-02-23 04:04:00,38.0,36.4,29.87,ESE,105,0.0,0.0,94,0.03,,,0.11,0,WeatherTracker,2013-02-23 09:04:00,
2013-02-23 04:09:00,38.0,36.4,29.88,ESE,105,0.0,0.0,94,0.02,,,0.11,0,WeatherTracker,2013-02-23 09:09:00,
2013-02-23 04:14:00,37.9,36.3,29.87,ESE,105,0.0,0.0,94,0.02,,,0.11,0,WeatherTracker,2013-02-23 09:14:00,
2013-02-23 04:19:00,37.8,36.2,29.86,ESE,105,0.0,0.0,94,0.02,,,0.12,0,WeatherTracker,2013-02-23 09:19:00,
2013-02-23 04:24:00,37.8,36.2,29.87,ESE,105,0.0,0.0,94,0.02,,,0.12,0,WeatherTracker,2013-02-23 09:24:00,
2013-02-23 04:29:00,37.9,36.3,29.87,ESE,105,0.0,0.0,94,0.02,,,0.12,0,WeatherTracker,2013-02-23 09:29:00,
2013-02-23 04:35:00,37.9,36.3,29.85,ESE,105,0.0,0.0,94,0.02,,,0.12,0,WeatherTracker,2013-02-23 09:35:00,
2013-02-23 04:40:00,38.0,36.4,29.85,ESE,105,0.0,0.0,94,0.03,,,0.13,0,WeatherTracker,2013-02-23 09:40:00,
2013-02-23 04:45:00,38.1,36.5,29.84,ESE,105,0.0,0.0,94,0.04,,,0.14,0,WeatherTracker,2013-02-23 09:45:00,
2013-02-23 04:50:00,38.3,36.7,29.83,ESE,105,0.0,0.0,94,0.04,,,0.14,0,WeatherTracker,2013-02-23 09:50:00,
2013-02-23 04:55:00,38.4,36.8,29.83,ESE,105,0.0,0.0,94,0.04,,,0.14,0,WeatherTracker,2013-02-23 09:55:00,
2013-02-23 05:00:00,38.4,36.8,29.82,ESE,105,0.0,0.0,94,0.04,,,0.14,0,WeatherTracker,2013-02-23 10:00:00,
2013-02-23 05:05:00,38.4,36.8,29.82,ESE,105,0.0,0.0,94,0.03,,,0.14,0,WeatherTracker,2013-02-23 10:05:00,
2013-02-23 05:10:00,38.6,37.0,29.83,ESE,105,0.0,0.0,94,0.03,,,0.14,0,WeatherTracker,2013-02-23 10:10:00,
2013-02-23 05:15:00,38.6,37.0,29.83,ESE,105,0.0,0.0,94,0.03,,,0.14,0,WeatherTracker,2013-02-23 10:15:00,
2013-02-23 05:20:00,38.5,36.9,29.84,ESE,105,0.0,0.0,94,0.02,,,0.14,0,WeatherTracker,2013-02-23 10:20:00,
2013-02-23 05:25:00,38.6,37.0,29.85,ESE,105,0.0,0.0,94,0.02,,,0.14,0,WeatherTracker,2013-02-23 10:25:00,
2013-02-23 05:30:00,38.8,37.2,29.85,ESE,105,0.0,0.0,94,0.02,,,0.14,0,WeatherTracker,2013-02-23 10:30:00,
2013-02-23 05:35:00,38.9,37.6,29.84,ESE,105,0.0,0.0,95,0.03,,,0.15,0,WeatherTracker,2013-02-23 10:35:00,
2013-02-23 05:40:00,39.1,37.8,29.84,ESE,105,0.0,0.0,95,0.03,,,0.16,0,WeatherTracker,2013-02-23 10:40:00,
2013-02-23 05:45:00,39.2,37.9,29.83,ESE,105,0.0,0.0,95,0.03,,,0.17,0,WeatherTracker,2013-02-23 10:45:00,
2013-02-23 05:50:00,39.3,38.0,29.83,ESE,105,0.0,0.0,95,0.04,,,0.18,0,WeatherTracker,2013-02-23 10:50:00,
2013-02-23 05:55:00,39.4,38.1,29.82,ESE,105,0.0,0.0,95,0.05,,,0.19,0,WeatherTracker,2013-02-23 10:55:00,
2013-02-23 06:01:00,39.8,38.5,29.82,ESE,105,0.0,0.0,95,0.06,,,0.20,0,WeatherTracker,2013-02-23 11:01:00,
2013-02-23 06:06:00,40.1,38.8,29.82,ESE,105,0.0,0.0,95,0.06,,,0.20,0,WeatherTracker,2013-02-23 11:06:00,
2013-02-23 06:11:00,40.4,39.1,29.82,ESE,105,0.0,0.0,95,0.07,,,0.21,0,WeatherTracker,2013-02-23 11:11:00,
2013-02-23 06:16:00,40.6,39.3,29.82,ESE,105,0.0,0.0,95,0.08,,,0.22,0,WeatherTracker,2013-02-23 11:16:00,
2013-02-23 06:21:00,40.7,39.4,29.82,ESE,105,0.0,0.0,95,0.08,,,0.22,0,WeatherTracker,2013-02-23 11:21:00,
2013-02-23 06:26:00,40.5,39.2,29.82,ESE,105,0.0,0.0,95,0.08,,,0.22,0,WeatherTracker,2013-02-23 11:26:00,
2013-02-23 06:31:00,40.5,38.9,29.82,ESE,105,0.0,0.0,94,0.08,,,0.22,0,WeatherTracker,2013-02-23 11:31:00,
2013-02-23 06:36:00,40.5,38.9,29.82,ESE,105,0.0,0.0,94,0.07,,,0.22,0,WeatherTracker,2013-02-23 11:36:00,
2013-02-23 06:41:00,40.5,38.9,29.82,ESE,105,0.0,0.0,94,0.06,,,0.22,0,WeatherTracker,2013-02-23 11:41:00,
2013-02-23 06:46:00,40.4,38.8,29.82,ESE,105,0.0,0.0,94,0.06,,,0.23,0,WeatherTracker,2013-02-23 11:46:00,
2013-02-23 06:51:00,40.4,38.8,29.83,ESE,105,0.0,0.0,94,0.05,,,0.23,0,WeatherTracker,2013-02-23 11:51:00,
2013-02-23 06:56:00,40.3,38.7,29.82,ESE,105,0.0,0.0,94,0.04,,,0.23,0,WeatherTracker,2013-02-23 11:56:00,
2013-02-23 07:01:00,40.1,38.5,29.82,ESE,105,0.0,0.0,94,0.03,,,0.23,0,WeatherTracker,2013-02-23 12:01:00,
2013-02-23 07:06:00,40.1,38.5,29.82,ESE,105,0.0,0.0,94,0.02,,,0.23,0,WeatherTracker,2013-02-23 12:06:00,
2013-02-23 07:11:00,40.1,38.5,29.83,ESE,105,0.0,0.0,94,0.02,,,0.23,0,WeatherTracker,2013-02-23 12:11:00,
2013-02-23 07:16:00,39.9,38.3,29.83,ESE,105,0.0,0.0,94,0.01,,,0.23,0,WeatherTracker,2013-02-23 12:16:00,
2013-02-23 07:21:00,39.8,38.2,29.83,ESE,105,0.0,0.0,94,0.01,,,0.23,0,WeatherTracker,2013-02-23 12:21:00,
2013-02-23 07:26:00,39.6,38.0,29.82,ESE,105,0.0,0.0,94,0.01,,,0.23,0,WeatherTracker,2013-02-23 12:26:00,
2013-02-23 07:31:00,39.6,38.0,29.82,ESE,105,0.0,0.0,94,0.01,,,0.23,0,WeatherTracker,2013-02-23 12:31:00,
2013-02-23 07:36:00,39.7,38.1,29.81,ESE,105,0.0,0.0,94,0.01,,,0.23,7,WeatherTracker,2013-02-23 12:36:00,
2013-02-23 07:41:00,39.8,38.2,29.81,ESE,105,0.0,0.0,94,0.01,,,0.23,7,WeatherTracker,2013-02-23 12:41:00,
2013-02-23 07:46:00,40.0,38.4,29.82,ESE,105,0.0,0.0,94,0.00,,,0.23,7,WeatherTracker,2013-02-23 12:46:00,
2013-02-23 07:51:00,40.1,38.8,29.82,ESE,105,0.0,0.0,95,0.00,,,0.23,5,WeatherTracker,2013-02-23 12:51:00,
2013-02-23 07:57:00,40.0,38.4,29.82,ESE,105,0.0,0.0,94,0.00,,,0.23,9,WeatherTracker,2013-02-23 12:57:00,
2013-02-23 08:02:00,39.9,38.3,29.81,ESE,105,0.0,0.0,94,0.00,,,0.23,18,WeatherTracker,2013-02-23 13:02:00,
2013-02-23 08:07:00,40.0,38.4,29.81,ESE,105,0.0,0.0,94,0.01,,,0.24,16,WeatherTracker,2013-02-23 13:07:00,
2013-02-23 08:12:00,39.9,38.3,29.82,ESE,105,0.0,0.0,94,0.01,,,0.24,16,WeatherTracker,2013-02-23 13:12:00,
2013-02-23 08:17:00,39.9,38.3,29.82,ESE,105,0.0,0.0,94,0.01,,,0.24,14,WeatherTracker,2013-02-23 13:17:00,
2013-02-23 08:22:00,39.8,38.2,29.82,ESE,105,0.0,0.0,94,0.01,,,0.24,12,WeatherTracker,2013-02-23 13:22:00,
2013-02-23 08:27:00,39.7,38.1,29.83,ESE,105,0.0,0.0,94,0.01,,,0.24,12,WeatherTracker,2013-02-23 13:27:00,
2013-02-23 08:32:00,39.6,38.0,29.83,ESE,105,0.0,0.0,94,0.01,,,0.24,18,WeatherTracker,2013-02-23 13:32:00,
2013-02-23 08:37:00,39.5,37.9,29.82,ESE,105,0.0,0.0,94,0.01,,,0.24,23,WeatherTracker,2013-02-23 13:37:00,
2013-02-23 08:42:00,39.6,38.3,29.83,ESE,105,0.0,0.0,95,0.01,,,0.24,23,WeatherTracker,2013-02-23 13:42:00,
2013-02-23 08:47:00,39.6,38.3,29.82,ESE,105,0.0,0.0,95,0.01,,,0.24,33,WeatherTracker,2013-02-23 13:47:00,
2013-02-23 08:52:00,39.8,38.5,29.83,ESE,105,0.0,0.0,95,0.01,,,0.24,49,WeatherTracker,2013-02-23 13:52:00,
2013-02-23 08:57:00,40.0,38.7,29.84,ESE,105,0.0,0.0,95,0.01,,,0.24,39,WeatherTracker,2013-02-23 13:57:00,
2013-02-23 09:02:00,40.2,38.9,29.84,ESE,105,0.0,0.0,95,0.00,,,0.24,42,WeatherTracker,2013-02-23 14:02:00,
2013-02-23 09:07:00,40.4,39.1,29.84,ESE,105,0.0,0.0,95,0.00,,,0.24,49,WeatherTracker,2013-02-23 14:07:00,
2013-02-23 09:12:00,40.6,39.3,29.84,ESE,105,0.0,0.0,95,0.00,,,0.24,47,WeatherTracker,2013-02-23 14:12:00,
2013-02-23 09:17:00,40.6,39.3,29.83,ESE,105,0.0,0.0,95,0.00,,,0.24,83,WeatherTracker,2013-02-23 14:17:00,
2013-02-23 09:22:00,40.9,39.6,29.83,ESE,105,0.0,0.0,95,0.00,,,0.24,46,WeatherTracker,2013-02-23 14:22:00,
2013-02-23 09:27:00,41.1,39.8,29.83,ESE,105,0.0,0.0,95,0.00,,,0.24,42,WeatherTracker,2013-02-23 14:27:00,
2013-02-23 09:32:00,41.3,40.0,29.83,ESE,105,0.0,0.0,95,0.00,,,0.24,46,WeatherTracker,2013-02-23 14:32:00,
2013-02-23 09:37:00,41.5,40.2,29.83,ESE,105,0.0,0.0,95,0.00,,,0.24,56,WeatherTracker,2013-02-23 14:37:00,
2013-02-23 09:42:00,41.8,40.5,29.83,ESE,105,0.0,0.0,95,0.00,,,0.24,63,WeatherTracker,2013-02-23 14:42:00,
2013-02-23 09:47:00,42.0,40.7,29.82,ESE,105,0.0,0.0,95,0.00,,,0.24,76,WeatherTracker,2013-02-23 14:47:00,
2013-02-23 09:52:00,42.3,41.0,29.82,ESE,105,0.0,0.0,95,0.01,,,0.25,104,WeatherTracker,2013-02-23 14:52:00,
2013-02-23 09:57:00,42.5,41.2,29.82,ESE,105,0.0,0.0,95,0.01,,,0.25,105,WeatherTracker,2013-02-23 14:57:00,
2013-02-23 10:03:00,42.8,41.5,29.81,ESE,105,0.0,0.0,95,0.01,,,0.25,142,WeatherTracker,2013-02-23 15:03:00,
2013-02-23 10:08:00,43.0,41.7,29.80,ESE,105,0.0,0.0,95,0.01,,,0.25,139,WeatherTracker,2013-02-23 15:08:00,
2013-02-23 10:13:00,43.1,41.8,29.81,ESE,105,0.0,0.0,95,0.01,,,0.25,155,WeatherTracker,2013-02-23 15:13:00,
2013-02-23 10:18:00,43.4,42.1,29.81,ESE,105,0.0,0.0,95,0.01,,,0.25,151,WeatherTracker,2013-02-23 15:18:00,
2013-02-23 10:23:00,43.6,42.3,29.81,ESE,106,0.0,0.0,95,0.01,,,0.25,135,WeatherTracker,2013-02-23 15:23:00,
2013-02-23 10:28:00,44.0,42.7,29.81,ESE,106,0.0,0.0,95,0.01,,,0.25,88,WeatherTracker,2013-02-23 15:28:00,
2013-02-23 10:33:00,44.0,42.7,29.82,ESE,106,0.0,0.0,95,0.01,,,0.25,88,WeatherTracker,2013-02-23 15:33:00,
2013-02-23 10:38:00,44.0,42.7,29.82,ESE,106,0.0,0.0,95,0.01,,,0.25,77,WeatherTracker,2013-02-23 15:38:00,
2013-02-23 10:43:00,43.9,42.6,29.81,ESE,106,0.0,0.0,95,0.01,,,0.25,84,WeatherTracker,2013-02-23 15:43:00,
2013-02-23 10:48:00,44.0,42.7,29.82,ESE,106,0.0,0.0,95,0.01,,,0.25,91,WeatherTracker,2013-02-23 15:48:00,
2013-02-23 10:53:00,44.1,42.8,29.82,ESE,106,0.0,0.0,95,0.00,,,0.25,113,WeatherTracker,2013-02-23 15:53:00,
2013-02-23 10:58:00,44.3,43.0,29.82,ESE,106,0.0,0.0,95,0.00,,,0.25,134,WeatherTracker,2013-02-23 15:58:00,
2013-02-23 11:03:00,44.6,43.3,29.81,ESE,106,0.0,0.0,95,0.00,,,0.25,132,WeatherTracker,2013-02-23 16:03:00,
2013-02-23 11:08:00,45.0,43.7,29.81,ESE,106,0.0,0.0,95,0.00,,,0.25,148,WeatherTracker,2013-02-23 16:08:00,
2013-02-23 11:13:00,45.5,44.2,29.81,ESE,106,0.0,0.0,95,0.00,,,0.25,243,WeatherTracker,2013-02-23 16:13:00,
2013-02-23 11:18:00,46.1,45.0,29.81,ESE,106,0.0,0.0,96,0.00,,,0.25,186,WeatherTracker,2013-02-23 16:18:00,
2013-02-23 11:23:00,46.6,45.2,29.81,ESE,106,0.0,0.0,95,0.00,,,0.25,167,WeatherTracker,2013-02-23 16:23:00,
2013-02-23 11:29:00,47.0,45.9,29.81,ESE,106,0.0,0.0,96,0.00,,,0.25,174,WeatherTracker,2013-02-23 16:29:00,
2013-02-23 11:34:00,47.4,46.3,29.81,ESE,106,0.0,0.0,96,0.00,,,0.25,149,WeatherTracker,2013-02-23 16:34:00,
2013-02-23 11:39:00,47.7,46.3,29.81,ESE,106,0.0,0.0,95,0.00,,,0.25,148,WeatherTracker,2013-02-23 16:39:00,
2013-02-23 11:44:00,47.9,46.5,29.81,ESE,106,0.0,0.0,95,0.00,,,0.25,199,WeatherTracker,2013-02-23 16:44:00,
2013-02-23 11:49:00,47.8,46.2,29.81,ESE,106,0.0,0.0,94,0.00,,,0.25,181,WeatherTracker,2013-02-23 16:49:00,
2013-02-23 11:54:00,47.8,45.9,29.81,ESE,106,0.0,0.0,93,0.00,,,0.25,206,WeatherTracker,2013-02-23 16:54:00,
2013-02-23 11:59:00,48.1,46.2,29.80,ESE,106,0.0,0.0,93,0.00,,,0.25,171,WeatherTracker,2013-02-23 16:59:00,
2013-02-23 12:04:00,47.9,45.7,29.80,ESE,106,0.0,0.0,92,0.00,,,0.25,172,WeatherTracker,2013-02-23 17:04:00,
2013-02-23 12:09:00,47.7,45.8,29.80,ESE,106,0.0,0.0,93,0.00,,,0.25,183,WeatherTracker,2013-02-23 17:09:00,
2013-02-23 12:14:00,47.9,46.0,29.80,ESE,106,0.0,0.0,93,0.00,,,0.25,174,WeatherTracker,2013-02-23 17:14:00,
2013-02-23 12:19:00,48.2,46.3,29.79,ESE,106,0.0,0.0,93,0.00,,,0.25,223,WeatherTracker,2013-02-23 17:19:00,
2013-02-23 12:24:00,48.5,46.6,29.79,ESE,106,0.0,0.0,93,0.00,,,0.25,195,WeatherTracker,2013-02-23 17:24:00,
2013-02-23 12:29:00,48.6,46.4,29.79,ESE,106,0.0,0.0,92,0.00,,,0.25,183,WeatherTracker,2013-02-23 17:29:00,
2013-02-23 12:34:00,48.6,46.4,29.78,ESE,106,0.0,0.0,92,0.00,,,0.25,192,WeatherTracker,2013-02-23 17:34:00,
2013-02-23 12:39:00,48.7,46.2,29.78,ESE,106,0.0,0.0,91,0.00,,,0.25,183,WeatherTracker,2013-02-23 17:39:00,
2013-02-23 12:44:00,49.0,46.8,29.77,ESE,106,0.0,0.0,92,0.00,,,0.25,169,WeatherTracker,2013-02-23 17:44:00,
2013-02-23 12:49:00,49.2,47.0,29.77,ESE,106,2.0,0.0,92,0.00,,,0.25,179,WeatherTracker,2013-02-23 17:49:00,
2013-02-23 12:54:00,49.2,46.4,29.77,ESE,106,0.0,0.0,90,0.00,,,0.25,185,WeatherTracker,2013-02-23 17:54:00,
2013-02-23 13:00:00,49.4,46.9,29.77,NW,322,2.0,0.0,91,0.00,,,0.25,149,WeatherTracker,2013-02-23 18:00:00,
2013-02-23 13:05:00,49.5,47.0,29.77,NW,322,0.0,0.0,91,0.00,,,0.25,171,WeatherTracker,2013-02-23 18:05:00,
2013-02-23 13:10:00,49.6,46.8,29.77,NW,322,0.0,0.0,90,0.00,,,0.25,167,WeatherTracker,2013-02-23 18:10:00,
2013-02-23 13:15:00,49.6,46.8,29.77,NW,322,1.0,0.0,90,0.00,,,0.25,162,WeatherTracker,2013-02-23 18:15:00,
2013-02-23 13:20:00,49.6,46.5,29.77,NW,322,0.0,0.0,89,0.00,,,0.25,151,WeatherTracker,2013-02-23 18:20:00,
2013-02-23 13:25:00,49.6,46.5,29.77,NW,322,0.0,0.0,89,0.00,,,0.25,153,WeatherTracker,2013-02-23 18:25:00,
2013-02-23 13:30:00,49.6,46.5,29.77,NW,322,2.0,0.0,89,0.00,,,0.25,178,WeatherTracker,2013-02-23 18:30:00,
2013-02-23 13:35:00,49.6,46.2,29.76,NW,322,0.0,0.0,88,0.00,,,0.25,171,WeatherTracker,2013-02-23 18:35:00,
2013-02-23 13:40:00,49.7,46.3,29.76,NW,322,0.0,0.0,88,0.00,,,0.25,186,WeatherTracker,2013-02-23 18:40:00,
2013-02-23 13:45:00,49.9,46.2,29.76,NW,322,0.0,0.0,87,0.00,,,0.25,160,WeatherTracker,2013-02-23 18:45:00,
2013-02-23 13:50:00,50.2,47.1,29.76,NW,322,0.0,0.0,89,0.00,,,0.25,142,WeatherTracker,2013-02-23 18:50:00,
2013-02-23 13:55:00,50.5,47.1,29.76,NW,322,0.0,0.0,88,0.00,,,0.25,135,WeatherTracker,2013-02-23 18:55:00,
2013-02-23 14:00:00,50.6,46.9,29.76,NW,322,0.0,0.0,87,0.00,,,0.25,165,WeatherTracker,2013-02-23 19:00:00,
2013-02-23 14:05:00,50.8,47.7,29.76,NW,322,0.0,0.0,89,0.00,,,0.25,104,WeatherTracker,2013-02-23 19:05:00,
2013-02-23 14:10:00,50.9,47.8,29.76,NW,322,0.0,0.0,89,0.00,,,0.25,90,WeatherTracker,2013-02-23 19:10:00,
2013-02-23 14:15:00,51.0,48.2,29.76,NW,322,0.0,0.0,90,0.00,,,0.25,88,WeatherTracker,2013-02-23 19:15:00,
2013-02-23 14:20:00,51.1,48.3,29.76,NW,322,0.0,0.0,90,0.00,,,0.25,88,WeatherTracker,2013-02-23 19:20:00,
2013-02-23 14:25:00,51.0,47.9,29.75,NW,322,0.0,0.0,89,0.00,,,0.25,95,WeatherTracker,2013-02-23 19:25:00,
2013-02-23 14:30:00,50.9,47.8,29.75,NW,322,0.0,0.0,89,0.00,,,0.25,113,WeatherTracker,2013-02-23 19:30:00,
2013-02-23 14:35:00,50.8,47.7,29.75,NW,322,0.0,0.0,89,0.00,,,0.25,104,WeatherTracker,2013-02-23 19:35:00,
2013-02-23 14:41:00,50.8,48.0,29.75,NW,322,0.0,0.0,90,0.00,,,0.25,104,WeatherTracker,2013-02-23 19:41:00,
2013-02-23 14:46:00,50.9,48.1,29.75,NW,322,0.0,0.0,90,0.00,,,0.25,118,WeatherTracker,2013-02-23 19:46:00,
2013-02-23 14:51:00,50.9,48.1,29.75,NW,322,0.0,0.0,90,0.00,,,0.25,113,WeatherTracker,2013-02-23 19:51:00,
2013-02-23 14:56:00,51.0,48.5,29.75,NW,322,0.0,0.0,91,0.00,,,0.25,111,WeatherTracker,2013-02-23 19:56:00,
2013-02-23 15:01:00,51.1,48.3,29.74,NW,322,0.0,0.0,90,0.00,,,0.25,130,WeatherTracker,2013-02-23 20:01:00,
2013-02-23 15:06:00,51.0,48.2,29.74,NW,322,0.0,0.0,90,0.00,,,0.25,127,WeatherTracker,2013-02-23 20:06:00,
2013-02-23 15:11:00,51.1,48.3,29.74,NW,322,0.0,0.0,90,0.00,,,0.25,120,WeatherTracker,2013-02-23 20:11:00,
2013-02-23 15:16:00,51.3,48.5,29.74,NW,322,0.0,0.0,90,0.00,,,0.25,139,WeatherTracker,2013-02-23 20:16:00,
2013-02-23 15:21:00,51.4,48.6,29.73,NW,322,0.0,0.0,90,0.00,,,0.25,116,WeatherTracker,2013-02-23 20:21:00,
2013-02-23 15:26:00,51.5,48.4,29.73,NW,322,0.0,0.0,89,0.00,,,0.25,104,WeatherTracker,2013-02-23 20:26:00,
2013-02-23 15:31:00,51.7,48.6,29.73,NW,322,0.0,0.0,89,0.00,,,0.25,93,WeatherTracker,2013-02-23 20:31:00,
2013-02-23 15:36:00,51.7,48.3,29.73,NW,322,0.0,0.0,88,0.00,,,0.25,72,WeatherTracker,2013-02-23 20:36:00,
2013-02-23 15:41:00,51.7,48.6,29.73,NW,322,0.0,0.0,89,0.00,,,0.25,54,WeatherTracker,2013-02-23 20:41:00,
2013-02-23 15:46:00,51.6,48.5,29.74,NW,322,2.0,0.0,89,0.00,,,0.25,46,WeatherTracker,2013-02-23 20:46:00,
2013-02-23 15:51:00,51.2,48.1,29.74,NW,322,2.0,0.0,89,0.00,,,0.25,46,WeatherTracker,2013-02-23 20:51:00,
2013-02-23 15:56:00,50.9,48.1,29.73,NW,322,0.0,0.0,90,0.00,,,0.25,56,WeatherTracker,2013-02-23 20:56:00,
2013-02-23 16:01:00,50.7,48.2,29.74,NW,322,0.0,0.0,91,0.00,,,0.25,54,WeatherTracker,2013-02-23 21:01:00,
2013-02-23 16:06:00,50.7,48.2,29.74,NW,322,0.0,0.0,91,0.00,,,0.25,53,WeatherTracker,2013-02-23 21:06:00,
2013-02-23 16:11:00,50.8,48.6,29.74,NW,322,0.0,0.0,92,0.00,,,0.25,56,WeatherTracker,2013-02-23 21:11:00,
2013-02-23 16:16:00,50.8,48.6,29.73,NW,322,0.0,0.0,92,0.00,,,0.25,46,WeatherTracker,2013-02-23 21:16:00,
2013-02-23 16:21:00,50.9,48.7,29.73,NW,322,0.0,0.0,92,0.00,,,0.25,35,WeatherTracker,2013-02-23 21:21:00,
2013-02-23 16:26:00,50.9,48.4,29.73,WSW,240,0.0,0.0,91,0.00,,,0.25,32,WeatherTracker,2013-02-23 21:26:00,
2013-02-23 16:31:00,50.8,48.3,29.73,WSW,240,0.0,0.0,91,0.00,,,0.25,37,WeatherTracker,2013-02-23 21:31:00,
2013-02-23 16:36:00,50.7,48.2,29.73,WSW,240,0.0,0.0,91,0.00,,,0.25,37,WeatherTracker,2013-02-23 21:36:00,
2013-02-23 16:41:00,50.5,48.0,29.72,WSW,240,0.0,0.0,91,0.00,,,0.25,35,WeatherTracker,2013-02-23 21:41:00,
2013-02-23 16:46:00,50.4,47.9,29.72,WSW,240,0.0,0.0,91,0.00,,,0.25,42,WeatherTracker,2013-02-23 21:46:00,
2013-02-23 16:51:00,50.3,48.1,29.72,WSW,240,0.0,0.0,92,0.00,,,0.25,44,WeatherTracker,2013-02-23 21:51:00,
2013-02-23 16:56:00,50.2,48.0,29.72,WSW,240,0.0,0.0,92,0.00,,,0.25,30,WeatherTracker,2013-02-23 21:56:00,
2013-02-23 17:01:00,50.2,48.0,29.71,WSW,240,0.0,0.0,92,0.00,,,0.25,28,WeatherTracker,2013-02-23 22:01:00,
2013-02-23 17:07:00,50.1,47.9,29.71,WSW,240,0.0,0.0,92,0.00,,,0.25,26,WeatherTracker,2013-02-23 22:07:00,
2013-02-23 17:12:00,50.1,47.9,29.71,WSW,240,0.0,0.0,92,0.00,,,0.25,21,WeatherTracker,2013-02-23 22:12:00,
2013-02-23 17:17:00,50.0,47.8,29.72,WNW,286,1.0,0.0,92,0.00,,,0.25,16,WeatherTracker,2013-02-23 22:17:00,
2013-02-23 17:22:00,49.9,47.7,29.71,WNW,286,0.0,0.0,92,0.00,,,0.25,12,WeatherTracker,2013-02-23 22:22:00,
2013-02-23 17:27:00,49.7,47.5,29.71,WNW,286,0.0,0.0,92,0.00,,,0.25,12,WeatherTracker,2013-02-23 22:27:00,
2013-02-23 17:32:00,49.7,47.5,29.71,WNW,286,0.0,0.0,92,0.00,,,0.25,14,WeatherTracker,2013-02-23 22:32:00,
2013-02-23 17:37:00,49.5,47.3,29.71,WNW,286,0.0,0.0,92,0.00,,,0.25,11,WeatherTracker,2013-02-23 22:37:00,
2013-02-23 17:42:00,49.5,47.6,29.71,WNW,286,0.0,0.0,93,0.00,,,0.25,9,WeatherTracker,2013-02-23 22:42:00,
2013-02-23 17:47:00,49.5,47.6,29.70,WNW,286,0.0,0.0,93,0.00,,,0.25,7,WeatherTracker,2013-02-23 22:47:00,
2013-02-23 17:52:00,49.4,47.5,29.70,West,281,0.0,0.0,93,0.00,,,0.25,7,WeatherTracker,2013-02-23 22:52:00,
2013-02-23 17:57:00,49.3,47.4,29.70,West,280,0.0,0.0,93,0.00,,,0.25,7,WeatherTracker,2013-02-23 22:57:00,
2013-02-23 18:02:00,49.2,47.3,29.70,West,277,0.0,0.0,93,0.00,,,0.25,5,WeatherTracker,2013-02-23 23:02:00,
2013-02-23 18:07:00,49.2,47.3,29.70,West,277,0.0,0.0,93,0.00,,,0.25,5,WeatherTracker,2013-02-23 23:07:00,
2013-02-23 18:12:00,49.1,47.2,29.70,West,277,0.0,0.0,93,0.00,,,0.25,0,WeatherTracker,2013-02-23 23:12:00,
2013-02-23 18:17:00,49.0,47.1,29.69,West,277,0.0,0.0,93,0.00,,,0.25,0,WeatherTracker,2013-02-23 23:17:00,
2013-02-23 18:22:00,48.9,47.0,29.70,West,277,0.0,0.0,93,0.00,,,0.25,0,WeatherTracker,2013-02-23 23:22:00,
2013-02-23 18:27:00,48.8,46.9,29.69,West,277,0.0,0.0,93,0.00,,,0.25,0,WeatherTracker,2013-02-23 23:27:00,
2013-02-23 18:32:00,48.8,46.9,29.69,West,277,0.0,0.0,93,0.00,,,0.25,0,WeatherTracker,2013-02-23 23:32:00,
2013-02-23 18:37:00,48.8,46.9,29.70,WNW,284,0.0,0.0,93,0.00,,,0.25,0,WeatherTracker,2013-02-23 23:37:00,
2013-02-23 18:42:00,48.7,46.8,29.70,WNW,287,0.0,0.0,93,0.00,,,0.25,0,WeatherTracker,2013-02-23 23:42:00,
2013-02-23 18:48:00,48.7,46.8,29.70,WNW,287,0.0,0.0,93,0.00,,,0.25,0,WeatherTracker,2013-02-23 23:48:00,
2013-02-23 18:53:00,48.6,46.7,29.70,WNW,287,0.0,0.0,93,0.00,,,0.25,0,WeatherTracker,2013-02-23 23:53:00,
2013-02-23 18:58:00,48.6,46.7,29.70,WNW,287,0.0,0.0,93,0.00,,,0.25,0,WeatherTracker,2013-02-23 23:58:00,
2013-02-23 19:03:00,48.5,46.6,29.70,WNW,287,0.0,0.0,93,0.00,,,0.25,0,WeatherTracker,2013-02-24 00:03:00,
2013-02-23 19:08:00,48.3,46.4,29.70,WNW,287,0.0,0.0,93,0.00,,,0.25,0,WeatherTracker,2013-02-24 00:08:00,
2013-02-23 19:13:00,48.1,46.2,29.70,WNW,287,0.0,0.0,93,0.00,,,0.25,0,WeatherTracker,2013-02-24 00:13:00,
2013-02-23 19:18:00,47.9,46.0,29.70,WNW,287,0.0,0.0,93,0.00,,,0.25,0,WeatherTracker,2013-02-24 00:18:00,
2013-02-23 19:23:00,47.7,45.8,29.70,WNW,287,0.0,0.0,93,0.00,,,0.25,0,WeatherTracker,2013-02-24 00:23:00,
2013-02-23 19:28:00,47.6,45.7,29.69,WNW,287,0.0,0.0,93,0.00,,,0.25,0,WeatherTracker,2013-02-24 00:28:00,
2013-02-23 19:33:00,47.5,45.6,29.70,WNW,287,2.0,0.0,93,0.00,,,0.25,0,WeatherTracker,2013-02-24 00:33:00,
2013-02-23 19:38:00,47.4,45.8,29.70,WNW,287,0.0,0.0,94,0.00,,,0.25,0,WeatherTracker,2013-02-24 00:38:00,
2013-02-23 19:43:00,47.4,45.8,29.70,WNW,287,0.0,0.0,94,0.00,,,0.25,0,WeatherTracker,2013-02-24 00:43:00,
2013-02-23 19:48:00,47.3,45.7,29.71,WNW,287,0.0,0.0,94,0.00,,,0.25,0,WeatherTracker,2013-02-24 00:48:00,
2013-02-23 19:53:00,47.2,45.6,29.71,WNW,287,0.0,0.0,94,0.00,,,0.25,0,WeatherTracker,2013-02-24 00:53:00,
2013-02-23 19:58:00,47.1,45.5,29.71,WNW,287,0.0,0.0,94,0.00,,,0.25,0,WeatherTracker,2013-02-24 00:58:00,
2013-02-23 20:03:00,47.1,45.5,29.70,WNW,287,0.0,0.0,94,0.00,,,0.25,0,WeatherTracker,2013-02-24 01:03:00,
2013-02-23 20:08:00,47.1,45.5,29.70,WNW,287,0.0,0.0,94,0.00,,,0.25,0,WeatherTracker,2013-02-24 01:08:00,
2013-02-23 20:13:00,47.1,45.5,29.70,WNW,287,0.0,0.0,94,0.00,,,0.25,0,WeatherTracker,2013-02-24 01:13:00,
2013-02-23 20:18:00,47.1,45.5,29.69,WNW,287,0.0,0.0,94,0.00,,,0.25,0,WeatherTracker,2013-02-24 01:18:00,
2013-02-23 20:23:00,47.0,45.4,29.70,WNW,287,0.0,0.0,94,0.00,,,0.25,0,WeatherTracker,2013-02-24 01:23:00,
2013-02-23 20:28:00,47.0,45.4,29.70,WNW,287,0.0,0.0,94,0.00,,,0.25,0,WeatherTracker,2013-02-24 01:28:00,
2013-02-23 20:33:00,47.0,45.6,29.70,WNW,287,0.0,0.0,95,0.00,,,0.25,0,WeatherTracker,2013-02-24 01:33:00,
2013-02-23 20:39:00,47.1,45.7,29.71,WNW,287,0.0,0.0,95,0.00,,,0.25,0,WeatherTracker,2013-02-24 01:39:00,
2013-02-23 20:44:00,47.2,45.8,29.71,WNW,287,0.0,0.0,95,0.00,,,0.25,0,WeatherTracker,2013-02-24 01:44:00,
2013-02-23 20:49:00,47.2,45.8,29.71,WNW,287,0.0,0.0,95,0.00,,,0.25,0,WeatherTracker,2013-02-24 01:49:00,
2013-02-23 20:54:00,47.2,45.8,29.71,WNW,287,0.0,0.0,95,0.00,,,0.25,0,WeatherTracker,2013-02-24 01:54:00,
2013-02-23 20:59:00,47.2,45.8,29.71,WNW,287,0.0,0.0,95,0.00,,,0.25,0,WeatherTracker,2013-02-24 01:59:00,
2013-02-23 21:04:00,47.2,45.8,29.71,WNW,287,0.0,0.0,95,0.00,,,0.25,0,WeatherTracker,2013-02-24 02:04:00,
2013-02-23 21:09:00,47.2,45.8,29.71,WNW,287,0.0,0.0,95,0.00,,,0.25,0,WeatherTracker,2013-02-24 02:09:00,
2013-02-23 21:14:00,47.1,45.7,29.71,WNW,287,0.0,0.0,95,0.00,,,0.25,0,WeatherTracker,2013-02-24 02:14:00,
2013-02-23 21:19:00,47.0,45.6,29.70,WNW,287,0.0,0.0,95,0.00,,,0.25,0,WeatherTracker,2013-02-24 02:19:00,
2013-02-23 21:24:00,47.0,45.6,29.71,WNW,287,0.0,0.0,95,0.00,,,0.25,0,WeatherTracker,2013-02-24 02:24:00,
2013-02-23 21:29:00,46.9,45.5,29.71,WNW,287,0.0,0.0,95,0.00,,,0.25,0,WeatherTracker,2013-02-24 02:29:00,
2013-02-23 21:34:00,47.0,45.6,29.71,WNW,287,0.0,0.0,95,0.00,,,0.25,0,WeatherTracker,2013-02-24 02:34:00,
2013-02-23 21:39:00,47.0,45.6,29.71,WNW,287,0.0,0.0,95,0.00,,,0.25,0,WeatherTracker,2013-02-24 02:39:00,
2013-02-23 21:44:00,47.2,45.8,29.71,WNW,287,0.0,0.0,95,0.00,,,0.25,0,WeatherTracker,2013-02-24 02:44:00,
2013-02-23 21:49:00,47.2,45.8,29.70,WNW,287,0.0,0.0,95,0.00,,,0.25,0,WeatherTracker,2013-02-24 02:49:00,
2013-02-23 21:54:00,47.3,45.9,29.70,WNW,287,0.0,0.0,95,0.00,,,0.25,0,WeatherTracker,2013-02-24 02:54:00,
2013-02-23 21:59:00,47.2,45.8,29.70,WNW,287,0.0,0.0,95,0.00,,,0.25,0,WeatherTracker,2013-02-24 02:59:00,
2013-02-23 22:04:00,47.1,45.7,29.70,WNW,287,0.0,0.0,95,0.00,,,0.25,0,WeatherTracker,2013-02-24 03:04:00,
2013-02-23 22:09:00,47.1,45.7,29.70,WNW,287,0.0,0.0,95,0.00,,,0.25,0,WeatherTracker,2013-02-24 03:09:00,
2013-02-23 22:14:00,47.0,45.6,29.70,WNW,287,0.0,0.0,95,0.00,,,0.25,0,WeatherTracker,2013-02-24 03:14:00,
2013-02-23 22:19:00,47.0,45.6,29.71,WNW,287,0.0,0.0,95,0.00,,,0.25,0,WeatherTracker,2013-02-24 03:19:00,
2013-02-23 22:24:00,46.9,45.5,29.70,WNW,287,0.0,0.0,95,0.00,,,0.25,0,WeatherTracker,2013-02-24 03:24:00,
2013-02-23 22:29:00,46.9,45.5,29.70,WNW,287,0.0,0.0,95,0.00,,,0.25,0,WeatherTracker,2013-02-24 03:29:00,
2013-02-23 22:34:00,46.8,45.4,29.71,WNW,287,0.0,0.0,95,0.00,,,0.25,0,WeatherTracker,2013-02-24 03:34:00,
2013-02-23 22:39:00,46.7,45.3,29.71,WNW,287,0.0,0.0,95,0.00,,,0.25,0,WeatherTracker,2013-02-24 03:39:00,
2013-02-23 22:44:00,46.6,45.2,29.71,WNW,287,0.0,0.0,95,0.00,,,0.25,0,WeatherTracker,2013-02-24 03:44:00,
2013-02-23 22:50:00,46.5,45.1,29.71,WNW,287,0.0,0.0,95,0.00,,,0.25,0,WeatherTracker,2013-02-24 03:50:00,
2013-02-23 22:55:00,46.4,45.0,29.71,WNW,287,0.0,0.0,95,0.00,,,0.25,0,WeatherTracker,2013-02-24 03:55:00,
2013-02-23 23:00:00,46.3,44.9,29.71,WNW,287,0.0,0.0,95,0.00,,,0.25,0,WeatherTracker,2013-02-24 04:00:00,
2013-02-23 23:05:00,46.3,44.9,29.71,WNW,287,0.0,0.0,95,0.00,,,0.25,0,WeatherTracker,2013-02-24 04:05:00,
2013-02-23 23:10:00,46.2,44.8,29.71,WNW,287,0.0,0.0,95,0.00,,,0.25,0,WeatherTracker,2013-02-24 04:10:00,
2013-02-23 23:15:00,46.1,44.7,29.70,WNW,287,0.0,0.0,95,0.00,,,0.25,0,WeatherTracker,2013-02-24 04:15:00,
2013-02-23 23:20:00,46.0,44.6,29.70,WNW,287,0.0,0.0,95,0.00,,,0.25,0,WeatherTracker,2013-02-24 04:20:00,
2013-02-23 23:25:00,45.9,44.5,29.71,WNW,287,0.0,0.0,95,0.00,,,0.25,0,WeatherTracker,2013-02-24 04:25:00,
2013-02-23 23:30:00,45.7,44.4,29.71,WNW,287,0.0,0.0,95,0.00,,,0.25,0,WeatherTracker,2013-02-24 04:30:00,
2013-02-23 23:35:00,45.6,44.3,29.71,WNW,287,0.0,0.0,95,0.00,,,0.25,0,WeatherTracker,2013-02-24 04:35:00,
2013-02-23 23:40:00,45.3,44.0,29.71,WNW,287,0.0,0.0,95,0.00,,,0.25,0,WeatherTracker,2013-02-24 04:40:00,
2013-02-23 23:45:00,45.0,43.7,29.71,WNW,287,0.0,0.0,95,0.00,,,0.25,0,WeatherTracker,2013-02-24 04:45:00,
2013-02-23 23:50:00,45.0,43.7,29.72,WNW,287,0.0,0.0,95,0.00,,,0.25,0,WeatherTracker,2013-02-24 04:50:00,
2013-02-23 23:55:00,45.0,43.7,29.71,WNW,287,0.0,0.0,95,0.00,,,0.25,0,WeatherTracker,2013-02-24 04:55:00,